Regional Weather Roundup
Issued by NWS Kansas City/Pleasant Hill, MO

Home | Current Version | Previous Version | Graphics & Text | Print | Product List | Glossary Off
Versions: 1 2 3 4 5 6 7 8 9 10 11 12 13 14 15 16 17 18 19 20 21 22 23 24 25 26 27 28 29 30 31 32 33 34 35 36 37 38 39 40 41 42 43 44 45 46 47 48 49 50

000
ASUS43 KEAX 251710
RWREAX

WEATHER ROUNDUP FOR EASTERN KANSAS AND NORTHWEST MISSOURI
NATIONAL WEATHER SERVICE KANSAS CITY/PLEASANT HILL MO
1100 AM CST SUN FEB 25 2018

KSZ040-057-103>105-MOZ028-029-037-043-251800-
...KANSAS CITY METROPOLITAN AREA...

CITY           SKY/WX    TMP DP  RH WIND       PRES   REMARKS
K.C. INTL      MOSUNNY   41  27  57 W10       30.08R WCI  35
K.C. DOWNTOWN  SUNNY     44  23  43 SW9       30.08S
LEES SUMMIT    SUNNY     42  28  57 S12       30.08S
OLATHE - IXD   SUNNY     42  28  57 S12       30.09R
OLATHE - OJC   SUNNY     40  28  62 SW8       30.08S WCI  34
LAWRENCE       SUNNY     42  27  55 SW6       30.09R

$$

MOZ001>008-011>017-020>025-030>033-038>040-044>046-053-054-251800-
...NORTHERN AND CENTRAL MISSOURI...

CITY           SKY/WX    TMP DP  RH WIND       PRES   REMARKS
ST. JOSEPH     SUNNY     40  30  67 SW13      30.07R WCI  32
MOSBY          SUNNY     41  23  48 SW10      30.09R WCI  35
WARRENSBURG    SUNNY     41  30  65 S9        30.11R
WHITEMAN AFB   SUNNY     43  25  49 SW8       30.08R
CLINTON        SUNNY     41  28  60 SW8       30.13R
SEDALIA        SUNNY     41  29  62 SW8       30.12R
WARSAW         NOT AVBL
CHILLICOTHE      N/A     41  25  53 W8        30.07R
KIRKSVILLE     SUNNY     40  26  57 W7        30.04R

$$

MOZ041-047>049-056>058-063>065-088>090-097-251800-
...EASTERN AND SOUTHERN MISSOURI...

CITY           SKY/WX    TMP DP  RH WIND       PRES   REMARKS
ST. LOUIS INTL MOSUNNY   44  27  51 VRB7      30.12R
SPIRIT OF STL  SUNNY     43  27  53 SW6       30.12R
COLUMBIA       SUNNY     42  28  57 S8        30.11R
JEFFERSON CITY SUNNY     42  25  50 W5        30.13R
ROLLA          SUNNY     41  29  62 SW7       30.12R
OSAGE BEACH    SUNNY     42  26  53 VRB3      30.14R
SPRINGFIELD    SUNNY     44  26  49 S3        30.10S
BRANSON        MOSUNNY   46  30  53 CALM      30.13R
JOPLIN         SUNNY     45  32  60 S7        30.13R
WEST PLAINS    SUNNY     45  31  58 CALM      30.13S

$$

IAZ060-094-KSZ022-034>040-054-083-096-NEZ052-066-093-251800-
...KANSAS...SOUTHEAST NEBRASKA AND IOWA...

CITY           SKY/WX    TMP DP  RH WIND       PRES   REMARKS
TOPEKA         SUNNY     44  25  47 SW8       30.07F
MANHATTAN      CLOUDY    41  24  51 SW10      30.07R WCI  35
EMPORIA        MOSUNNY   43  24  47 S15       30.07R
CHANUTE        SUNNY     43  29  57 SE6       30.10F
WICHITA        MOSUNNY   45  23  42 SE7       30.06F
OMAHA          MOSUNNY   34  20  56 W9        29.99R WCI  27
LINCOLN        SUNNY     35  25  66 SW10      30.01R WCI  27
FALLS CITY     SUNNY     40  28  62 SW15      30.03R WCI  32
LAMONI         SUNNY     39  26  59 SW14      29.99R WCI  31
DES MOINES     MOSUNNY   37  23  56 W20G25    29.94R WCI  27

$$




USA.gov is the U.S. government's official web portal to all federal, state and local government web resources and services.